CAPE
1 2 0 nan nan nan nan nan nan nan nan nan nan nan nan nan nan nan nan nan nan nan nan nan nan nan nan nan nan nan nan nan nan nan nan nan 0 0 1 2 2 3 6 7 7 9 10 11 11 12 13 15 17 17 18 20 20 24 31 35 35 31 34 39 39 47 52 56 60 60 60 56 57 57 59 60 61 61 66 68 68 70 72 67 67 63
0 2 1 nan nan nan nan nan nan nan nan nan nan nan nan nan nan nan nan nan nan nan nan nan nan nan nan nan nan nan nan nan nan nan nan nan 0 0 2 3 3 5 7 8 8 9 10 11 11 13 14 15 17 17 19 23 23 23 28 29 29 29 30 35 35 41 45 47 49 49 48 46 48 48 52 56 56 56 60 63 63 65 67 64 64 60
nan 0 0 nan nan nan nan nan nan nan nan nan nan nan nan nan nan nan nan nan nan nan nan nan nan nan nan nan nan nan nan nan nan nan nan 0 1 1 2 3 3 6 8 8 8 11 11 12 12 13 15 16 19 19 22 26 26 26 27 26 26 25 29 33 33 36 40 41 42 42 40 37 42 42 46 53 56 56 57 60 60 61 58 58 58 61
nan nan 0 nan nan nan nan nan nan nan nan nan nan nan nan nan nan nan nan nan nan nan nan nan nan nan nan nan nan nan nan nan nan nan nan 0 2 2 3 4 4 6 7 9 9 10 11 13 13 14 17 18 21 21 24 24 24 25 26 24 24 26 28 30 30 34 36 37 38 38 36 36 38 38 42 46 50 50 49 47 47 45 46 49 49 53
nan 0 0 nan nan nan nan nan nan nan nan nan nan nan nan nan nan nan nan nan nan nan nan nan nan nan nan nan nan nan nan nan nan nan nan 1 2 2 3 4 4 5 7 8 8 9 11 13 13 15 18 21 23 23 25 24 24 24 24 24 24 27 28 31 31 31 31 34 35 35 33 34 33 33 35 36 38 38 39 38 38 38 39 43 43 49
0 nan nan nan nan nan nan nan nan nan nan nan nan nan nan nan nan nan nan nan nan nan nan nan nan nan nan nan nan nan nan nan nan nan nan 0 1 1 1 2 2 3 4 6 6 7 9 13 13 16 19 22 24 24 26 25 25 27 26 26 26 27 25 29 29 29 29 31 33 33 32 31 30 30 28 30 31 31 33 33 33 35 40 44 44 48
nan nan nan nan nan nan nan nan nan nan nan nan nan nan nan nan nan nan nan nan nan nan nan nan nan nan nan nan nan nan nan nan nan nan nan nan nan nan 0 0 0 1 3 4 4 7 9 12 12 17 21 24 25 25 28 28 28 28 27 28 28 28 26 27 27 28 29 30 29 29 28 25 24 24 24 24 26 26 30 33 33 36 41 48 48 49
nan nan nan nan nan nan nan nan nan nan nan nan nan nan nan nan nan nan nan nan nan nan nan nan nan nan nan nan nan nan nan nan nan nan nan nan nan nan nan 0 0 1 3 6 6 8 12 14 14 17 19 20 22 22 22 20 20 19 20 19 19 19 19 21 21 19 19 17 17 17 18 18 19 19 21 22 23 23 26 33 33 41 48 56 56 60
nan nan nan nan nan nan nan nan nan nan nan nan nan nan nan nan nan nan nan nan nan nan nan nan nan nan nan nan nan nan nan nan nan nan nan nan nan nan nan 3 3 4 6 7 7 8 10 12 12 12 13 13 13 13 14 13 13 11 12 11 11 12 11 12 12 14 13 14 16 16 17 18 20 20 22 24 24 24 26 31 31 42 50 60 60 66
nan nan nan nan nan nan nan nan nan nan nan nan nan nan nan nan nan nan nan nan nan nan nan nan nan nan nan nan nan nan nan nan nan nan nan nan 0 0 2 1 1 1 4 5 5 6 6 5 5 5 4 5 5 5 6 5 5 5 5 5 5 6 7 9 9 11 13 16 17 17 19 21 22 22 23 26 26 26 29 31 31 40 52 64 64 76
nan nan nan nan nan nan nan nan nan nan nan nan nan nan nan nan nan nan nan nan nan nan nan nan nan nan nan nan nan nan nan nan nan nan nan nan nan nan 0 0 0 1 2 2 2 1 0 0 0 0 0 1 1 1 1 1 1 1 2 3 3 4 8 9 9 12 15 17 20 20 23 24 25 25 27 29 31 31 33 37 37 44 51 65 65 76
nan nan nan nan nan nan nan nan nan nan nan nan nan nan nan nan nan nan nan nan nan nan nan nan nan nan nan nan nan nan nan nan nan nan nan nan nan nan nan nan nan nan nan nan nan nan nan nan nan nan nan nan nan nan nan nan nan 0 0 2 2 5 8 11 11 14 17 19 20 20 23 26 30 30 31 32 33 33 37 38 38 42 49 57 57 69
nan nan nan nan nan nan nan nan nan nan nan nan nan nan nan nan nan nan nan nan nan nan nan nan nan nan nan nan nan nan nan nan nan nan nan nan nan nan nan nan nan nan nan nan nan nan nan nan nan nan nan nan nan nan nan nan nan nan 0 2 2 5 9 13 13 16 19 20 23 23 25 29 31 31 32 34 35 35 39 38 38 43 46 54 54 61
nan nan nan nan nan nan nan nan nan nan nan nan nan nan nan nan nan nan nan nan nan nan nan nan nan nan nan nan nan nan nan nan nan nan nan nan nan nan nan nan nan nan nan nan nan nan nan nan nan nan nan nan nan nan nan nan nan nan 1 4 4 8 12 15 15 19 21 22 25 25 27 29 33 33 33 34 38 38 38 38 38 40 43 49 49 55
nan nan nan nan nan nan nan nan nan nan nan nan nan nan nan nan nan nan nan nan nan nan nan nan nan nan nan nan nan nan nan nan nan nan nan nan nan nan nan nan nan nan nan nan nan nan nan nan nan nan nan nan nan nan nan nan nan 1 3 6 6 12 14 18 18 21 24 24 25 25 27 28 32 32 34 34 35 35 35 39 39 40 43 47 47 50
nan nan nan nan nan nan nan nan nan nan nan nan nan nan nan nan nan nan nan nan nan nan nan nan nan nan nan nan nan nan nan nan nan nan nan nan nan nan nan nan nan nan nan nan nan nan nan nan nan nan nan nan nan nan nan nan nan 2 5 9 9 12 15 18 18 19 21 23 24 24 24 25 26 26 29 31 33 33 33 35 35 38 41 46 46 49
nan nan nan nan nan nan nan nan nan nan nan nan nan nan nan nan nan nan nan nan nan nan nan nan nan nan nan nan nan nan nan nan nan nan nan nan nan nan nan nan nan nan nan nan nan nan nan nan nan nan nan nan nan nan nan 0 0 3 5 8 8 10 14 16 16 18 20 22 24 24 23 23 24 24 25 26 27 27 31 34 34 37 41 46 46 47
nan nan nan nan nan nan nan nan nan nan nan nan nan nan nan nan nan nan nan nan nan nan nan nan nan nan nan nan nan nan nan nan nan nan nan nan nan nan nan nan nan nan nan nan nan nan nan nan nan nan nan nan nan nan nan 0 0 2 5 7 7 10 13 14 14 17 18 20 24 24 24 23 23 23 23 24 26 26 28 33 33 35 39 42 42 45
nan nan nan nan nan nan nan nan nan nan nan nan nan nan nan nan nan nan nan nan nan nan nan nan nan nan nan nan nan nan nan nan nan nan nan nan nan nan nan nan nan nan nan nan nan nan nan nan nan nan nan nan nan nan nan 0 0 2 4 8 8 10 11 13 13 15 17 20 22 22 21 23 24 24 25 24 26 26 29 32 32 34 37 40 40 44
nan nan nan nan nan nan nan nan nan nan nan nan nan nan nan nan nan nan nan nan nan nan nan nan nan nan nan nan nan nan nan nan nan nan nan nan nan nan nan nan nan nan nan nan nan nan nan nan nan nan nan nan nan nan nan 0 0 2 5 7 7 8 11 11 11 14 16 18 19 19 21 22 24 24 26 26 26 26 29 31 31 35 36 40 40 44
nan nan nan nan nan nan nan nan nan nan nan nan nan nan nan nan nan nan nan nan nan nan nan nan nan nan nan nan nan nan nan nan nan nan nan nan nan nan nan nan nan nan nan nan nan nan nan nan nan nan nan nan nan nan nan 0 0 1 3 5 5 6 8 10 10 11 13 15 17 17 19 20 23 23 26 28 28 28 29 31 31 36 37 42 42 43
nan nan nan nan nan nan nan nan nan nan nan nan nan nan nan nan nan nan nan nan nan nan 0 0 0 1 2 2 nan nan nan nan nan nan nan nan nan nan nan nan nan nan nan nan nan nan nan nan nan nan nan nan nan nan nan nan nan 0 1 3 3 4 6 7 7 8 10 12 15 15 18 23 25 25 27 29 30 30 31 33 33 34 38 40 40 41
nan nan nan nan nan nan nan nan nan nan nan nan nan nan nan nan nan nan nan nan nan 0 3 4 4 4 nan nan nan nan nan nan nan nan nan nan nan nan nan nan nan nan nan nan nan nan nan nan nan nan nan nan nan nan nan nan nan nan 0 2 2 3 5 5 5 7 11 14 17 17 21 23 27 27 28 29 31 31 34 34 34 35 39 40 40 42
nan nan nan nan nan nan nan nan nan nan nan nan nan nan nan nan nan nan nan 5 5 6 4 0 0 nan nan nan nan nan nan nan nan nan nan nan nan nan nan nan nan nan nan nan nan nan nan nan nan nan nan nan nan nan nan nan nan nan 0 1 1 3 4 7 7 10 13 15 18 18 20 24 25 25 25 26 29 29 31 34 34 35 36 38 38 41
nan nan nan nan nan nan nan nan nan nan nan nan nan nan nan nan 1 1 22 11 11 2 0 nan nan nan nan nan nan nan nan nan nan nan nan nan nan nan nan nan nan nan nan nan nan nan nan nan nan nan nan nan nan nan nan nan nan nan 0 1 1 3 6 9 9 11 13 14 16 16 16 19 21 21 25 26 29 29 31 31 31 35 35 38 38 36
nan nan nan nan nan nan nan 0 2 2 nan nan nan nan nan 0 8 8 6 3 3 nan nan nan nan nan nan nan nan nan nan nan nan nan nan nan nan nan nan nan nan nan nan nan nan nan nan nan nan nan nan nan nan nan nan nan nan nan 0 1 1 3 5 7 7 8 10 10 11 11 14 17 20 20 23 26 28 28 31 33 33 34 36 35 35 35
nan nan nan 0 0 0 3 9 14 14 20 16 2 2 2 6 7 7 4 0 0 nan nan nan nan nan nan nan nan nan nan nan nan nan nan nan nan nan nan nan nan nan nan nan nan nan nan nan nan nan nan nan nan nan nan nan nan nan 0 1 1 2 2 3 3 4 6 8 10 10 14 19 22 22 24 27 27 27 31 33 33 35 34 35 35 32
0 1 2 3 3 5 6 9 15 15 20 25 30 30 18 4 4 4 2 nan nan nan nan nan nan nan nan nan nan nan nan nan nan nan nan nan nan nan nan nan nan nan nan nan nan nan nan nan nan nan nan nan nan nan nan nan nan 0 0 0 0 0 1 2 2 3 5 8 11 11 16 20 24 24 26 27 29 29 31 35 35 36 38 26 26 6
2 3 7 9 9 9 12 13 16 16 20 22 27 27 17 1 1 1 nan nan nan nan nan nan nan nan nan nan nan nan nan nan nan nan nan nan nan nan nan nan nan nan nan nan nan nan nan nan nan nan nan nan nan nan nan nan nan nan nan nan nan 0 0 1 1 3 6 10 14 14 18 22 24 24 26 26 30 30 30 33 33 36 29 15 15 3
nan nan 1 4 4 6 4 0 8 8 14 15 19 19 14 nan nan nan nan nan nan nan nan nan nan nan nan nan nan nan nan nan nan nan nan nan nan nan nan nan nan nan nan nan nan nan nan nan nan nan nan nan nan nan nan nan nan nan nan nan nan nan 0 1 1 3 6 9 14 14 19 21 24 24 24 26 29 29 29 33 33 27 10 3 3 0
nan nan nan nan nan nan nan nan nan nan 8 9 11 11 0 nan nan nan nan nan nan nan nan nan nan nan nan nan nan nan nan nan nan nan nan nan nan nan nan nan nan nan nan nan nan nan nan nan nan nan nan nan nan nan nan nan nan nan nan nan nan nan nan 1 1 3 5 9 13 13 17 19 21 21 22 24 27 27 30 35 35 23 5 1 1 0
nan nan nan nan nan nan nan nan nan nan nan nan nan nan nan nan nan nan nan nan nan nan nan nan nan nan 0 nan nan nan nan nan nan nan nan nan nan nan nan nan nan nan nan nan nan nan nan nan nan nan nan nan nan nan nan nan nan nan nan nan nan nan nan nan nan 0 0 5 8 8 10 10 10 10 11 13 17 17 21 27 27 26 8 1 1 2
nan nan nan nan nan nan nan nan nan nan nan nan nan nan nan nan nan nan nan nan nan nan nan nan nan nan nan nan nan nan nan nan nan nan nan nan nan nan nan nan nan nan nan nan nan nan nan nan nan nan nan nan nan nan nan nan nan nan nan nan nan nan nan nan nan nan nan nan 0 0 4 5 6 6 8 10 13 13 19 24 24 28 25 2 2 3
nan nan nan nan nan nan nan nan nan nan nan nan nan nan nan nan nan nan nan nan nan nan nan nan nan nan nan nan nan nan nan nan nan nan nan nan nan nan nan nan nan 0 nan nan nan nan nan nan nan nan nan nan nan nan nan nan nan nan nan nan nan nan nan nan nan nan nan nan nan nan nan nan 1 1 3 7 11 11 19 27 27 31 38 22 22 9
nan nan nan nan nan nan nan nan nan nan nan nan nan nan nan nan nan nan nan nan nan nan nan nan nan nan nan nan nan nan nan nan nan nan 1 nan nan nan nan nan nan nan nan nan nan nan nan nan nan nan nan nan nan nan nan nan nan nan nan nan nan nan nan nan nan nan nan nan nan nan nan nan nan nan nan 3 13 13 23 32 32 37 40 44 44 30
nan nan nan nan nan nan nan nan nan nan nan nan nan nan nan nan nan nan nan nan nan nan nan nan nan nan nan nan nan nan nan nan nan nan 2 nan nan nan nan nan nan nan nan nan nan 0 nan nan nan 0 0 nan nan nan nan nan nan nan nan nan nan nan nan nan nan nan nan nan nan nan nan nan nan nan nan 7 15 15 22 26 26 28 28 33 33 33
nan nan nan nan nan nan nan nan nan nan nan nan nan nan nan nan nan nan nan nan nan nan nan nan nan nan nan nan nan nan nan nan nan nan 1 0 0 0 0 0 0 1 nan nan nan nan nan nan nan nan nan nan nan nan nan nan nan nan nan nan nan nan nan nan nan nan nan nan nan nan nan nan nan nan nan 5 5 5 9 15 15 12 18 21 21 25
nan nan nan nan nan nan nan nan nan nan nan nan nan nan nan nan nan nan nan nan nan nan nan nan nan nan nan 2 nan nan nan nan nan nan nan nan 0 0 0 0 0 1 1 0 0 nan nan nan nan nan nan nan nan nan nan nan nan nan nan nan nan nan nan nan nan nan nan nan nan nan nan nan nan nan nan nan nan nan nan nan nan nan 7 7 7 19
nan nan nan nan nan nan nan nan nan nan nan nan nan nan nan nan nan nan nan nan nan nan nan nan nan nan nan nan 0 0 2 nan nan nan nan nan nan nan nan nan nan nan nan nan nan nan nan nan nan nan nan nan nan nan nan nan nan nan nan nan nan nan nan nan nan nan nan nan nan nan nan nan nan nan nan nan nan nan nan nan nan nan nan nan nan nan
nan nan nan nan nan nan nan nan nan nan nan nan nan nan nan nan nan nan nan nan nan nan nan nan nan nan nan 0 1 1 nan nan nan nan nan nan nan nan nan nan nan nan nan nan nan nan nan nan nan nan nan nan nan nan nan nan nan nan 1 nan nan nan nan nan nan nan nan nan nan nan nan nan nan nan nan nan nan nan nan nan nan nan nan nan nan nan
nan nan nan nan nan nan nan nan nan nan nan nan nan nan nan nan nan nan nan nan nan 0 nan nan nan nan nan nan nan nan nan nan nan nan nan nan nan nan nan nan nan nan nan nan nan nan nan nan nan nan nan nan nan nan nan nan nan 1 6 nan nan nan nan nan nan nan nan nan nan nan nan nan nan nan nan nan nan nan nan nan nan nan nan nan nan nan
nan nan nan nan nan nan nan nan nan nan nan nan nan nan nan nan nan nan nan nan nan nan nan nan nan nan nan nan nan nan nan nan nan nan nan nan nan nan nan nan nan nan nan nan nan nan nan nan nan nan nan nan nan nan nan nan nan 0 2 nan nan nan nan nan nan nan nan nan nan nan nan nan nan nan nan nan nan nan nan nan nan nan nan nan nan nan
0 nan nan nan nan nan nan nan nan nan nan nan nan nan nan nan nan nan nan nan nan nan nan 0 0 nan 0 nan nan nan nan nan nan nan nan nan nan nan nan nan nan nan nan nan nan nan nan nan nan nan nan nan nan nan nan nan nan nan nan 0 0 0 nan nan nan nan nan nan nan nan nan nan nan nan nan nan nan nan nan nan nan nan nan nan nan nan
nan 0 nan nan nan nan nan nan nan nan nan nan nan nan nan nan 0 0 1 nan nan nan 0 0 0 0 nan nan nan nan nan nan nan nan nan nan nan nan nan nan nan nan nan nan nan nan nan nan nan nan nan nan nan nan nan nan nan nan nan nan nan nan nan nan nan nan nan nan nan nan nan nan nan nan nan nan nan nan nan nan nan nan nan nan nan nan
0 0 nan nan nan nan nan nan nan nan nan nan nan nan nan nan 1 1 1 nan nan 0 0 1 1 nan nan nan nan nan nan nan nan nan nan nan 7 7 nan nan nan nan nan nan nan nan nan nan nan nan nan nan nan nan nan nan nan 0 1 0 0 0 nan nan nan nan nan nan nan nan nan nan nan nan nan nan nan nan nan nan nan nan nan nan nan nan
0 0 nan nan nan nan 0 nan nan nan nan nan nan nan nan nan nan nan 1 0 0 nan 0 0 0 nan nan nan nan nan nan nan nan nan nan nan nan nan nan nan nan nan nan nan nan nan nan nan nan nan 0 0 0 0 0 nan nan nan nan 0 0 nan nan nan nan nan nan nan nan nan nan nan nan nan nan nan nan nan nan nan nan nan nan nan nan nan
nan nan nan nan nan nan nan nan nan nan nan nan nan nan nan nan nan nan 0 0 0 0 0 2 2 nan nan 0 0 0 nan nan nan nan nan nan nan nan nan nan nan nan nan nan nan nan nan nan nan nan nan nan nan nan nan nan nan nan nan nan nan nan nan nan nan nan nan nan nan nan nan nan nan nan nan nan nan nan nan 0 0 nan nan nan nan nan
0 0 nan nan nan nan nan nan nan nan nan nan nan nan nan nan nan nan nan nan nan 1 5 1 1 0 1 0 0 0 nan nan nan nan nan nan nan nan nan nan nan nan nan nan nan nan nan nan nan nan nan nan nan nan nan nan nan nan nan nan nan nan nan nan nan nan nan nan nan nan nan nan nan nan nan 1 1 1 3 2 2 0 0 0 0 nan
0 0 nan nan nan 0 0 nan nan nan nan nan nan nan nan 1 11 11 1 0 0 0 0 1 1 1 1 0 0 0 1 0 nan nan nan nan nan nan nan nan nan nan nan nan nan nan nan nan nan nan nan nan nan nan nan nan nan nan nan nan nan nan nan nan nan nan nan nan nan nan nan nan nan nan 0 1 2 2 1 1 1 0 0 0 0 nan
nan 0 1 0 0 nan nan nan nan nan nan nan nan nan nan nan nan nan 0 0 0 0 nan 0 0 0 0 0 nan nan nan nan nan nan nan nan nan nan nan nan nan nan nan nan nan nan nan nan nan nan 3 0 nan nan nan nan nan nan nan nan nan nan nan nan nan nan nan nan nan nan nan 1 2 2 2 2 1 1 1 1 1 0 nan 0 0 nan
2 0 0 0 0 0 nan nan nan nan nan nan nan nan nan nan nan nan nan nan nan nan 0 nan nan nan nan nan nan nan nan nan nan nan nan nan nan nan nan nan nan nan nan nan nan nan nan nan nan nan 2 16 4 4 nan nan nan nan nan nan nan nan nan nan nan nan 1 1 0 0 0 1 1 1 1 2 1 1 2 1 1 0 nan nan nan nan
CIN
-1 -0 -2 nan nan nan nan nan nan nan nan nan nan nan nan nan nan nan nan nan nan nan nan nan nan nan nan nan nan nan nan nan nan nan nan nan -0 -0 -0 -0 -0 -0 -0 -0 -0 -0 -0 -0 -0 -0 -0 -0 -0 -0 -0 -0 -0 -0 -0 -0 -0 -0 -0 -0 -0 -0 -0 -0 -0 -0 -0 -0 -0 -0 -0 -0 -0 -0 -0 -0 -0 -0 -0 -0 -0 -0
-0 -0 -1 nan nan nan nan nan nan nan nan nan nan nan nan nan nan nan nan nan nan nan nan nan nan nan nan nan nan nan nan nan nan nan nan nan -0 -0 -0 -0 -0 -0 -0 -0 -0 -0 -0 -0 -0 -0 -0 -0 -0 -0 -0 -0 -0 -0 -0 -0 -0 -0 -0 -0 -0 -0 -0 -0 -0 -0 -0 -0 -0 -0 -0 -0 -0 -0 -0 -0 -0 -0 -0 -0 -0 -0
nan -1 -1 nan nan nan nan nan nan nan nan nan nan nan nan nan nan nan nan nan nan nan nan nan nan nan nan nan nan nan nan nan nan nan nan -0 -0 -0 -0 -0 -0 -0 -0 -0 -0 -0 -0 -0 -0 -0 -0 -0 -0 -0 -0 -0 -0 -0 -0 -0 -0 -0 -0 -0 -0 -0 -0 -0 -0 -0 -0 -0 -0 -0 -0 -0 -0 -0 -0 -0 -0 -0 -0 -0 -0 -0
nan nan -1 nan nan nan nan nan nan nan nan nan nan nan nan nan nan nan nan nan nan nan nan nan nan nan nan nan nan nan nan nan nan nan nan -0 -0 -0 -0 -0 -0 -0 -0 -0 -0 -0 -0 -0 -0 -0 -0 -0 -0 -0 -0 -0 -0 -0 -0 -0 -0 -0 -0 -0 -0 -0 -0 -0 -0 -0 -0 -0 -0 -0 -0 -0 -0 -0 -0 -0 -0 -0 -0 -0 -0 -0
nan -1 -1 nan nan nan nan nan nan nan nan nan nan nan nan nan nan nan nan nan nan nan nan nan nan nan nan nan nan nan nan nan nan nan nan -0 -0 -0 -0 -0 -0 -0 -0 -0 -0 -0 -0 -0 -0 -0 -0 -0 -0 -0 -0 -0 -0 -0 -0 -0 -0 -0 -0 -0 -0 -0 -0 -0 -0 -0 -0 -0 -0 -0 -0 -0 -0 -0 -0 -0 -0 -0 -0 -0 -0 -0
-1 nan nan nan nan nan nan nan nan nan nan nan nan nan nan nan nan nan nan nan nan nan nan nan nan nan nan nan nan nan nan nan nan nan nan -0 -0 -0 -0 -0 -0 -0 -0 -0 -0 -0 -0 -0 -0 -0 -0 -0 -0 -0 -0 -0 -0 -0 -0 -0 -0 -0 -0 -0 -0 -0 -0 -0 -0 -0 -0 -0 -0 -0 -0 -0 -0 -0 -0 -0 -0 -0 -0 -0 -0 -0
nan nan nan nan nan nan nan nan nan nan nan nan nan nan nan nan nan nan nan nan nan nan nan nan nan nan nan nan nan nan nan nan nan nan nan nan nan nan -0 -0 -0 -0 -0 -0 -0 -0 -0 -0 -0 -0 -0 -0 -0 -0 -0 -0 -0 -0 -0 -0 -0 -0 -0 -0 -0 -0 -0 -0 -0 -0 -0 -0 -0 -0 -0 -0 -0 -0 -0 -0 -0 -0 -0 -0 -0 -0
nan nan nan nan nan nan nan nan nan nan nan nan nan nan nan nan nan nan nan nan nan nan nan nan nan nan nan nan nan nan nan nan nan nan nan nan nan nan nan -0 -0 -0 -0 -0 -0 -0 -0 -0 -0 -0 -0 -0 -0 -0 -0 -0 -0 -0 -0 -0 -0 -0 -0 -0 -0 -0 -0 -0 -0 -0 -0 -0 -0 -0 -0 -0 -0 -0 -0 -0 -0 -0 -0 -0 -0 -0
nan nan nan nan nan nan nan nan nan nan nan nan nan nan nan nan nan nan nan nan nan nan nan nan nan nan nan nan nan nan nan nan nan nan nan nan nan nan nan -0 -0 -0 -0 -0 -0 -0 -0 -0 -0 -0 -0 -0 -0 -0 -0 -0 -0 -0 -0 -0 -0 -0 -0 -0 -0 -0 -0 -0 -0 -0 -0 -0 -0 -0 -0 -0 -0 -0 -0 -0 -0 -0 -0 -0 -0 -0
nan nan nan nan nan nan nan nan nan nan nan nan nan nan nan nan nan nan nan nan nan nan nan nan nan nan nan nan nan nan nan nan nan nan nan nan -0 -0 -4 -5 -5 -16 -0 -0 -0 -0 -0 -0 -0 -0 -0 -0 -0 -0 -0 -0 -0 -0 -0 -0 -0 -0 -0 -0 -0 -0 -0 -0 -0 -0 -0 -0 -0 -0 -0 -0 -0 -0 -0 -0 -0 -0 -0 -0 -0 -0
nan nan nan nan nan nan nan nan nan nan nan nan nan nan nan nan nan nan nan nan nan nan nan nan nan nan nan nan nan nan nan nan nan nan nan nan nan nan -3 -12 -12 -5 -0 -0 -0 -0 -0 -0 -0 -0 -0 -0 -0 -0 -0 -0 -0 -0 -0 -0 -0 -0 -0 -0 -0 -0 -0 -0 -0 -0 -0 -0 -0 -0 -0 -0 -0 -0 -0 -0 -0 -0 -0 -0 -0 -0
nan nan nan nan nan nan nan nan nan nan nan nan nan nan nan nan nan nan nan nan nan nan nan nan nan nan nan nan nan nan nan nan nan nan nan nan nan nan nan nan nan nan nan nan nan nan nan nan nan nan nan nan nan nan nan nan nan -0 -0 -0 -0 -0 -0 -0 -0 -0 -0 -0 -0 -0 -0 -0 -0 -0 -0 -0 -0 -0 -0 -0 -0 -0 -0 -0 -0 -0
nan nan nan nan nan nan nan nan nan nan nan nan nan nan nan nan nan nan nan nan nan nan nan nan nan nan nan nan nan nan nan nan nan nan nan nan nan nan nan nan nan nan nan nan nan nan nan nan nan nan nan nan nan nan nan nan nan nan -0 -0 -0 -0 -0 -0 -0 -0 -0 -0 -0 -0 -0 -0 -0 -0 -0 -0 -0 -0 -0 -0 -0 -0 -0 -0 -0 -0
nan nan nan nan nan nan nan nan nan nan nan nan nan nan nan nan nan nan nan nan nan nan nan nan nan nan nan nan nan nan nan nan nan nan nan nan nan nan nan nan nan nan nan nan nan nan nan nan nan nan nan nan nan nan nan nan nan nan -0 -0 -0 -0 -0 -0 -0 -0 -0 -0 -0 -0 -0 -0 -0 -0 -0 -0 -0 -0 -0 -0 -0 -0 -0 -0 -0 -0
nan nan nan nan nan nan nan nan nan nan nan nan nan nan nan nan nan nan nan nan nan nan nan nan nan nan nan nan nan nan nan nan nan nan nan nan nan nan nan nan nan nan nan nan nan nan nan nan nan nan nan nan nan nan nan nan nan -0 -0 -0 -0 -0 -0 -0 -0 -0 -0 -0 -0 -0 -0 -0 -0 -0 -0 -0 -0 -0 -0 -0 -0 -0 -0 -0 -0 -0
nan nan nan nan nan nan nan nan nan nan nan nan nan nan nan nan nan nan nan nan nan nan nan nan nan nan nan nan nan nan nan nan nan nan nan nan nan nan nan nan nan nan nan nan nan nan nan nan nan nan nan nan nan nan nan nan nan -0 -0 -0 -0 -0 -0 -0 -0 -0 -0 -0 -0 -0 -0 -0 -0 -0 -0 -0 -0 -0 -0 -0 -0 -0 -0 -0 -0 -0
nan nan nan nan nan nan nan nan nan nan nan nan nan nan nan nan nan nan nan nan nan nan nan nan nan nan nan nan nan nan nan nan nan nan nan nan nan nan nan nan nan nan nan nan nan nan nan nan nan nan nan nan nan nan nan -0 -0 -0 -0 -0 -0 -0 -0 -0 -0 -0 -0 -0 -0 -0 -0 -0 -0 -0 -0 -0 -0 -0 -0 -0 -0 -0 -0 -0 -0 -0
nan nan nan nan nan nan nan nan nan nan nan nan nan nan nan nan nan nan nan nan nan nan nan nan nan nan nan nan nan nan nan nan nan nan nan nan nan nan nan nan nan nan nan nan nan nan nan nan nan nan nan nan nan nan nan -0 -0 -0 -0 -0 -0 -0 -0 -0 -0 -0 -0 -0 -0 -0 -0 -0 -0 -0 -0 -0 -0 -0 -0 -0 -0 -0 -0 -0 -0 -0
nan nan nan nan nan nan nan nan nan nan nan nan nan nan nan nan nan nan nan nan nan nan nan nan nan nan nan nan nan nan nan nan nan nan nan nan nan nan nan nan nan nan nan nan nan nan nan nan nan nan nan nan nan nan nan -0 -0 -0 -0 -0 -0 -0 -0 -0 -0 -0 -0 -0 -0 -0 -0 -0 -0 -0 -0 -0 -0 -0 -0 -0 -0 -0 -0 -0 -0 -0
nan nan nan nan nan nan nan nan nan nan nan nan nan nan nan nan nan nan nan nan nan nan nan nan nan nan nan nan nan nan nan nan nan nan nan nan nan nan nan nan nan nan nan nan nan nan nan nan nan nan nan nan nan nan nan -0 -0 -0 -0 -0 -0 -0 -0 -0 -0 -0 -0 -0 -0 -0 -0 -0 -0 -0 -0 -0 -0 -0 -0 -0 -0 -0 -0 -0 -0 -0
nan nan nan nan nan nan nan nan nan nan nan nan nan nan nan nan nan nan nan nan nan nan nan nan nan nan nan nan nan nan nan nan nan nan nan nan nan nan nan nan nan nan nan nan nan nan nan nan nan nan nan nan nan nan nan -0 -0 -0 -0 -0 -0 -0 -0 -0 -0 -0 -0 -0 -0 -0 -0 -0 -0 -0 -0 -0 -0 -0 -0 -0 -0 -0 -0 -0 -0 -0
nan nan nan nan nan nan nan nan nan nan nan nan nan nan nan nan nan nan nan nan nan nan -32 -26 -26 -21 -17 -19 nan nan nan nan nan nan nan nan nan nan nan nan nan nan nan nan nan nan nan nan nan nan nan nan nan nan nan nan nan -0 -0 -0 -0 -0 -0 -0 -0 -0 -0 -0 -0 -0 -0 -0 -0 -0 -0 -0 -0 -0 -0 -0 -0 -0 -0 -0 -0 -0
nan nan nan nan nan nan nan nan nan nan nan nan nan nan nan nan nan nan nan nan nan -25 -11 -13 -13 -17 nan nan nan nan nan nan nan nan nan nan nan nan nan nan nan nan nan nan nan nan nan nan nan nan nan nan nan nan nan nan nan nan -0 -0 -0 -0 -0 -0 -0 -0 -0 -0 -0 -0 -0 -0 -0 -0 -0 -0 -0 -0 -0 -0 -0 -0 -0 -0 -0 -0
nan nan nan nan nan nan nan nan nan nan nan nan nan nan nan nan nan nan nan -14 -14 -9 -13 -21 -21 nan nan nan nan nan nan nan nan nan nan nan nan nan nan nan nan nan nan nan nan nan nan nan nan nan nan nan nan nan nan nan nan nan -0 -0 -0 -0 -0 -0 -0 -0 -0 -0 -0 -0 -0 -0 -0 -0 -0 -0 -0 -0 -0 -0 -0 -0 -0 -0 -0 -0
nan nan nan nan nan nan nan nan nan nan nan nan nan nan nan nan -22 -22 -7 -11 -11 -16 -24 nan nan nan nan nan nan nan nan nan nan nan nan nan nan nan nan nan nan nan nan nan nan nan nan nan nan nan nan nan nan nan nan nan nan nan -0 -0 -0 -0 -0 -0 -0 -0 -0 -0 -0 -0 -0 -0 -0 -0 -0 -0 -0 -0 -0 -0 -0 -0 -0 -0 -0 -0
nan nan nan nan nan nan nan -6 -13 -13 nan nan nan nan nan -36 -21 -21 -22 -17 -17 nan nan nan nan nan nan nan nan nan nan nan nan nan nan nan nan nan nan nan nan nan nan nan nan nan nan nan nan nan nan nan nan nan nan nan nan nan -0 -0 -0 -0 -0 -0 -0 -0 -0 -0 -0 -0 -0 -0 -0 -0 -0 -0 -0 -0 -0 -0 -0 -0 -0 -0 -0 -0
nan nan nan -0 -0 -0 -0 -0 -0 -0 -0 -0 -31 -31 -33 -23 -15 -15 -11 -17 -17 nan nan nan nan nan nan nan nan nan nan nan nan nan nan nan nan nan nan nan nan nan nan nan nan nan nan nan nan nan nan nan nan nan nan nan nan nan -0 -0 -0 -0 -0 -0 -0 -0 -0 -0 -0 -0 -0 -0 -0 -0 -0 -0 -0 -0 -0 -0 -0 -0 -0 -0 -0 -0
-0 -0 -0 -0 -0 -0 -0 -0 -0 -0 -0 -0 -0 -0 -5 -20 -10 -10 -6 nan nan nan nan nan nan nan nan nan nan nan nan nan nan nan nan nan nan nan nan nan nan nan nan nan nan nan nan nan nan nan nan nan nan nan nan nan nan -0 -0 -0 -0 -0 -0 -0 -0 -0 -0 -0 -0 -0 -0 -0 -0 -0 -0 -0 -0 -0 -0 -0 -0 -0 -0 -0 -0 -15
-0 -0 -0 -0 -0 -0 -0 -0 -0 -0 -0 -0 -0 -0 -1 -21 -10 -10 nan nan nan nan nan nan nan nan nan nan nan nan nan nan nan nan nan nan nan nan nan nan nan nan nan nan nan nan nan nan nan nan nan nan nan nan nan nan nan nan nan nan nan -0 -0 -0 -0 -0 -0 -0 -0 -0 -0 -0 -0 -0 -0 -0 -0 -0 -0 -0 -0 -0 -0 -2 -2 -25
nan nan -9 -0 -0 -0 -0 -22 -0 -0 -0 -0 -0 -0 -0 nan nan nan nan nan nan nan nan nan nan nan nan nan nan nan nan nan nan nan nan nan nan nan nan nan nan nan nan nan nan nan nan nan nan nan nan nan nan nan nan nan nan nan nan nan nan nan -0 -0 -0 -0 -0 -0 -0 -0 -0 -0 -0 -0 -0 -0 -0 -0 -0 -0 -0 -0 -6 -26 -26 -38
nan nan nan nan nan nan nan nan nan nan -0 -0 -0 -0 -19 nan nan nan nan nan nan nan nan nan nan nan nan nan nan nan nan nan nan nan nan nan nan nan nan nan nan nan nan nan nan nan nan nan nan nan nan nan nan nan nan nan nan nan nan nan nan nan nan -0 -0 -0 -0 -0 -0 -0 -0 -0 -0 -0 -0 -0 -0 -0 -0 -0 -0 -0 -15 -34 -34 -43
nan nan nan nan nan nan nan nan nan nan nan nan nan nan nan nan nan nan nan nan nan nan nan nan nan nan -12 nan nan nan nan nan nan nan nan nan nan nan nan nan nan nan nan nan nan nan nan nan nan nan nan nan nan nan nan nan nan nan nan nan nan nan nan nan nan -0 -0 -0 -0 -0 -0 -0 -0 -0 -0 -0 -0 -0 -0 -0 -0 -0 -11 -32 -32 -28
nan nan nan nan nan nan nan nan nan nan nan nan nan nan nan nan nan nan nan nan nan nan nan nan nan nan nan nan nan nan nan nan nan nan nan nan nan nan nan nan nan nan nan nan nan nan nan nan nan nan nan nan nan nan nan nan nan nan nan nan nan nan nan nan nan nan nan nan -1 -1 -0 -0 -0 -0 -0 -0 -0 -0 -0 -0 -0 -0 -0 -24 -24 -23
nan nan nan nan nan nan nan nan nan nan nan nan nan nan nan nan nan nan nan nan nan nan nan nan nan nan nan nan nan nan nan nan nan nan nan nan nan nan nan nan nan -8 nan nan nan nan nan nan nan nan nan nan nan nan nan nan nan nan nan nan nan nan nan nan nan nan nan nan nan nan nan nan -0 -0 -0 -0 -0 -0 -0 -0 -0 -0 -0 -1 -1 -14
nan nan nan nan nan nan nan nan nan nan nan nan nan nan nan nan nan nan nan nan nan nan nan nan nan nan nan nan nan nan nan nan nan nan -10 nan nan nan nan nan nan nan nan nan nan nan nan nan nan nan nan nan nan nan nan nan nan nan nan nan nan nan nan nan nan nan nan nan nan nan nan nan nan nan nan -0 -0 -0 -0 -0 -0 -0 -0 -0 -0 -0
nan nan nan nan nan nan nan nan nan nan nan nan nan nan nan nan nan nan nan nan nan nan nan nan nan nan nan nan nan nan nan nan nan nan -4 nan nan nan nan nan nan nan nan nan nan -4 nan nan nan -1 -0 nan nan nan nan nan nan nan nan nan nan nan nan nan nan nan nan nan nan nan nan nan nan nan nan -0 -0 -0 -0 -0 -0 -0 -0 -0 -0 -0
nan nan nan nan nan nan nan nan nan nan nan nan nan nan nan nan nan nan nan nan nan nan nan nan nan nan nan nan nan nan nan nan nan nan -5 -14 -11 -11 -6 -4 -4 -1 nan nan nan nan nan nan nan nan nan nan nan nan nan nan nan nan nan nan nan nan nan nan nan nan nan nan nan nan nan nan nan nan nan -0 -0 -0 -0 -0 -0 -0 -0 -0 -0 -0
nan nan nan nan nan nan nan nan nan nan nan nan nan nan nan nan nan nan nan nan nan nan nan nan nan nan nan -0 nan nan nan nan nan nan nan nan -13 -13 -5 -5 -5 -2 -3 -4 -4 nan nan nan nan nan nan nan nan nan nan nan nan nan nan nan nan nan nan nan nan nan nan nan nan nan nan nan nan nan nan nan nan nan nan nan nan nan -0 -0 -0 -0
nan nan nan nan nan nan nan nan nan nan nan nan nan nan nan nan nan nan nan nan nan nan nan nan nan nan nan nan -17 -17 -8 nan nan nan nan nan nan nan nan nan nan nan nan nan nan nan nan nan nan nan nan nan nan nan nan nan nan nan nan nan nan nan nan nan nan nan nan nan nan nan nan nan nan nan nan nan nan nan nan nan nan nan nan nan nan nan
nan nan nan nan nan nan nan nan nan nan nan nan nan nan nan nan nan nan nan nan nan nan nan nan nan nan nan -14 -8 -8 nan nan nan nan nan nan nan nan nan nan nan nan nan nan nan nan nan nan nan nan nan nan nan nan nan nan nan nan -3 nan nan nan nan nan nan nan nan nan nan nan nan nan nan nan nan nan nan nan nan nan nan nan nan nan nan nan
nan nan nan nan nan nan nan nan nan nan nan nan nan nan nan nan nan nan nan nan nan -16 nan nan nan nan nan nan nan nan nan nan nan nan nan nan nan nan nan nan nan nan nan nan nan nan nan nan nan nan nan nan nan nan nan nan nan -2 -0 nan nan nan nan nan nan nan nan nan nan nan nan nan nan nan nan nan nan nan nan nan nan nan nan nan nan nan
nan nan nan nan nan nan nan nan nan nan nan nan nan nan nan nan nan nan nan nan nan nan nan nan nan nan nan nan nan nan nan nan nan nan nan nan nan nan nan nan nan nan nan nan nan nan nan nan nan nan nan nan nan nan nan nan nan -5 -2 nan nan nan nan nan nan nan nan nan nan nan nan nan nan nan nan nan nan nan nan nan nan nan nan nan nan nan
-1 nan nan nan nan nan nan nan nan nan nan nan nan nan nan nan nan nan nan nan nan nan nan -14 -14 nan -10 nan nan nan nan nan nan nan nan nan nan nan nan nan nan nan nan nan nan nan nan nan nan nan nan nan nan nan nan nan nan nan nan -8 -8 -8 nan nan nan nan nan nan nan nan nan nan nan nan nan nan nan nan nan nan nan nan nan nan nan nan
nan -6 nan nan nan nan nan nan nan nan nan nan nan nan nan nan -15 -15 -10 nan nan nan -13 -18 -18 -16 nan nan nan nan nan nan nan nan nan nan nan nan nan nan nan nan nan nan nan nan nan nan nan nan nan nan nan nan nan nan nan nan nan nan nan nan nan nan nan nan nan nan nan nan nan nan nan nan nan nan nan nan nan nan nan nan nan nan nan nan
-11 -7 nan nan nan nan nan nan nan nan nan nan nan nan nan nan -11 -11 -9 nan nan -13 -17 -15 -15 nan nan nan nan nan nan nan nan nan nan nan -6 -6 nan nan nan nan nan nan nan nan nan nan nan nan nan nan nan nan nan nan nan -9 -6 -8 -8 -9 nan nan nan nan nan nan nan nan nan nan nan nan nan nan nan nan nan nan nan nan nan nan nan nan
-10 -14 nan nan nan nan -13 nan nan nan nan nan nan nan nan nan nan nan -13 -17 -17 nan -20 -20 -20 nan nan nan nan nan nan nan nan nan nan nan nan nan nan nan nan nan nan nan nan nan nan nan nan nan -11 -10 -11 -11 -10 nan nan nan nan -7 -7 nan nan nan nan nan nan nan nan nan nan nan nan nan nan nan nan nan nan nan nan nan nan nan nan nan
nan nan nan nan nan nan nan nan nan nan nan nan nan nan nan nan nan nan -22 -19 -19 -20 -16 -13 -13 nan nan -7 -9 -9 nan nan nan nan nan nan nan nan nan nan nan nan nan nan nan nan nan nan nan nan nan nan nan nan nan nan nan nan nan nan nan nan nan nan nan nan nan nan nan nan nan nan nan nan nan nan nan nan nan -28 -28 nan nan nan nan nan
-12 -14 nan nan nan nan nan nan nan nan nan nan nan nan nan nan nan nan nan nan nan -13 -4 -9 -9 -7 -7 -8 -7 -7 nan nan nan nan nan nan nan nan nan nan nan nan nan nan nan nan nan nan nan nan nan nan nan nan nan nan nan nan nan nan nan nan nan nan nan nan nan nan nan nan nan nan nan nan nan -14 -13 -13 -15 -21 -21 -31 -33 -37 -37 nan
-15 -15 nan nan nan -16 -14 nan nan nan nan nan nan nan nan -12 -0 -0 -10 -20 -20 -17 -12 -7 -7 -6 -6 -8 -6 -6 -2 -5 nan nan nan nan nan nan nan nan nan nan nan nan nan nan nan nan nan nan nan nan nan nan nan nan nan nan nan nan nan nan nan nan nan nan nan nan nan nan nan nan nan nan -17 -14 -11 -11 -13 -17 -17 -23 -29 -34 -34 nan
nan -17 -12 -12 -12 nan nan nan nan nan nan nan nan nan nan nan nan nan -20 -18 -18 -17 nan -9 -9 -7 -6 -8 nan nan nan nan nan nan nan nan nan nan nan nan nan nan nan nan nan nan nan nan nan nan -12 -9 nan nan nan nan nan nan nan nan nan nan nan nan nan nan nan nan nan nan nan -37 -28 -28 -20 -12 -13 -13 -13 -12 -12 -17 nan -31 -31 nan
-7 -14 -15 -14 -14 -9 nan nan nan nan nan nan nan nan nan nan nan nan nan nan nan nan -16 nan nan nan nan nan nan nan nan nan nan nan nan nan nan nan nan nan nan nan nan nan nan nan nan nan nan nan -13 -1 -9 -9 nan nan nan nan nan nan nan nan nan nan nan nan -21 -25 -41 -41 -46 -36 -26 -26 -20 -13 -9 -9 -8 -11 -11 -16 nan nan nan nan
Wind_Speed
2 3 3 4 4 4 4 5 4 4 3 3 3 3 3 3 3 3 4 3 3 3 3 3 3 3 5 8 10 11 12 13 13 13 13 13 13 13 13 13 13 13 13 13 14 14 14 14 15 15 15 16 16 16 16 16 16 16 17 17 17 16 16 16 16 16 16 16 17 17 17 17 16 16 16 17 17 17 17 18 18 18 18 18 18 18
2 2 3 3 3 3 2 3 4 3 3 3 3 3 3 3 3 2 2 2 2 2 3 3 3 3 4 6 8 11 12 12 12 12 12 12 12 13 13 13 13 13 13 14 14 14 14 14 15 15 15 15 16 16 16 16 16 16 16 16 16 16 16 16 16 16 16 16 16 16 16 16 16 17 17 17 17 17 18 18 18 18 19 19 19 19
2 2 2 3 3 2 2 2 3 3 4 4 3 3 3 3 3 2 2 2 2 3 3 3 3 4 4 5 7 10 11 12 12 12 12 12 12 13 13 13 13 14 14 14 14 14 14 14 15 15 15 15 16 16 16 16 16 16 16 16 16 16 16 16 16 16 16 16 16 16 16 16 16 17 17 17 18 18 18 18 18 19 19 19 19 19
2 2 2 2 2 3 3 3 3 4 4 4 4 4 3 3 2 2 2 2 2 3 3 3 4 4 4 4 6 8 10 11 12 12 12 13 13 13 13 13 14 14 14 14 14 14 14 14 15 15 15 15 15 16 16 16 16 16 16 16 16 16 16 16 16 16 16 16 16 16 16 16 16 17 17 17 18 18 18 18 19 19 19 19 19 19
2 2 2 2 2 3 3 3 4 4 4 4 4 3 3 2 2 2 2 2 2 3 3 3 3 3 3 3 4 7 10 11 12 12 12 13 13 13 13 13 13 14 14 14 14 14 14 14 14 15 15 15 16 16 16 16 16 16 16 16 16 16 16 16 16 16 16 16 16 16 16 16 17 17 17 18 18 18 19 19 19 19 19 19 19 20
2 2 2 2 2 2 3 3 3 3 4 3 3 2 2 2 2 2 2 2 2 3 3 3 3 3 3 3 5 7 10 11 11 12 12 13 13 13 13 13 13 13 13 13 14 14 14 14 15 15 15 16 16 16 16 16 16 16 16 16 16 16 16 16 16 16 16 16 16 16 16 16 17 17 17 18 18 18 19 19 19 19 19 20 20 20
1 1 1 2 2 2 2 2 3 3 3 2 2 2 1 1 1 2 2 2 2 2 2 2 2 2 3 3 5 6 8 9 10 11 11 12 13 13 13 14 14 14 14 14 14 14 14 15 15 15 16 16 16 16 16 16 16 16 16 16 16 16 15 15 15 15 15 16 16 16 16 16 17 17 17 18 18 18 18 19 19 19 20 20 20 20
1 0 1 1 2 2 2 2 3 3 2 2 2 1 1 1 1 1 1 1 2 2 2 2 2 2 2 2 3 3 4 5 6 7 8 10 11 11 12 13 14 14 14 14 14 14 15 15 15 15 16 16 16 16 16 16 16 16 16 15 15 15 15 15 15 15 15 15 15 15 16 16 16 16 17 17 17 18 18 18 19 19 20 20 20 20
1 1 1 2 2 2 2 2 2 2 2 2 2 2 1 0 1 1 1 2 2 2 2 2 2 2 2 1 1 2 3 4 4 4 6 6 6 8 10 11 12 13 14 14 14 14 15 15 15 15 16 16 16 16 16 16 16 15 15 15 15 14 14 14 15 15 15 15 15 15 15 15 16 16 16 17 17 17 18 18 19 19 20 20 20 21
1 1 2 2 2 2 2 2 2 1 1 2 2 2 2 1 1 1 2 2 2 2 1 1 1 1 2 1 1 1 3 4 6 8 9 8 9 10 10 10 10 11 13 13 14 14 14 15 15 15 16 16 16 16 16 15 15 15 14 14 14 14 14 14 14 14 14 14 15 15 15 15 15 16 16 16 17 17 18 18 19 19 20 20 21 21
2 2 2 2 2 2 2 2 2 1 1 1 1 1 1 2 2 2 2 3 2 2 1 1 1 1 1 1 1 2 2 3 5 6 9 10 11 12 11 11 10 10 12 12 13 14 14 15 15 16 16 16 16 15 15 15 14 14 14 14 14 14 14 14 14 14 14 14 14 15 15 15 16 16 16 17 17 18 18 18 19 19 20 20 21 21
2 2 2 2 2 1 1 1 1 0 1 1 1 0 1 2 2 3 2 2 2 1 1 1 1 1 1 1 2 2 2 2 3 4 4 6 7 7 7 7 7 8 9 10 11 12 13 14 15 15 15 15 15 15 15 14 14 14 14 14 14 14 14 14 14 14 14 14 15 15 15 16 16 17 17 17 18 18 18 19 19 19 20 20 21 21
2 2 2 1 1 1 1 1 0 0 1 1 1 2 2 2 2 2 2 1 1 1 1 1 1 1 1 1 1 2 2 2 3 3 3 3 3 3 2 3 3 4 4 5 5 7 10 12 13 13 14 14 14 14 15 14 14 14 14 14 14 14 14 14 14 14 14 15 15 16 16 16 17 17 18 18 18 19 19 19 19 20 20 20 21 21
2 1 1 1 1 1 1 1 1 1 1 2 2 2 2 1 1 1 0 0 1 1 0 1 1 2 1 1 1 1 2 2 2 2 2 2 2 2 2 2 3 3 3 3 3 4 7 8 8 9 11 12 12 13 13 14 14 15 15 14 14 14 14 14 15 15 15 16 16 16 17 17 17 18 18 18 19 19 19 19 19 20 20 20 21 21
1 1 1 1 1 1 1 1 1 1 1 1 1 1 1 0 1 1 0 1 1 1 1 2 2 2 2 2 1 1 1 2 2 2 3 3 2 2 2 3 3 4 3 3 4 5 6 6 5 5 7 8 9 10 12 13 14 15 15 15 15 15 15 15 16 16 16 17 17 17 17 18 18 18 18 19 19 19 19 20 20 20 20 20 21 21
1 1 1 1 1 1 1 1 1 1 1 0 0 1 1 1 1 0 1 0 1 1 2 2 2 2 2 2 2 1 1 2 2 3 3 3 3 2 2 3 3 4 4 4 4 4 5 5 5 5 6 8 11 13 15 15 15 16 16 16 16 16 16 16 17 17 17 17 17 18 18 18 18 18 19 19 19 19 20 20 20 20 20 20 21 21
1 1 1 0 1 1 1 0 0 0 0 0 0 1 1 0 0 1 1 1 1 1 1 1 1 2 2 2 2 2 1 2 2 3 4 4 3 3 2 2 3 4 4 4 4 4 4 4 4 5 5 9 12 14 15 16 16 16 17 17 17 17 17 17 17 17 17 18 18 18 18 18 19 19 19 19 19 20 20 20 20 20 20 20 21 21
0 1 1 0 1 1 1 0 0 0 0 0 0 1 1 1 1 1 1 1 1 0 0 1 1 2 2 2 2 2 1 1 2 3 4 4 4 3 2 3 3 4 4 4 4 4 4 4 4 5 7 11 14 15 16 16 17 17 17 17 17 17 17 17 18 18 18 18 18 19 19 19 19 19 19 19 20 20 20 20 20 20 20 20 20 21
0 1 1 1 1 1 0 0 0 0 0 0 0 1 1 1 1 1 1 1 1 1 1 1 2 2 3 3 3 2 1 1 2 3 4 5 4 3 2 3 3 4 4 4 4 4 4 5 6 8 10 13 15 16 17 17 17 17 18 18 18 18 18 18 18 18 19 19 19 19 19 19 19 19 20 20 20 20 20 20 20 20 20 20 21 21
0 1 1 1 1 0 0 0 0 0 1 1 1 1 1 1 1 1 0 0 1 1 2 2 3 3 3 3 3 2 1 2 2 3 4 5 4 3 2 2 3 4 4 4 4 4 4 4 5 7 10 12 14 16 17 17 18 18 18 18 19 19 19 19 19 19 19 19 19 19 19 19 19 20 20 20 20 20 20 20 20 20 20 20 21 21
1 1 1 1 1 1 0 1 1 0 1 2 2 2 1 1 1 1 1 1 2 2 2 2 3 3 2 3 3 2 2 2 2 3 3 4 4 3 2 2 3 4 5 4 4 4 4 4 4 5 7 11 14 16 17 18 18 19 19 19 19 19 20 20 20 20 20 20 20 20 20 20 20 20 20 20 20 20 20 20 20 20 20 21 21 21
0 1 1 0 1 1 1 1 0 1 2 3 2 2 1 0 0 1 1 2 2 2 2 3 3 3 3 3 3 3 2 2 2 3 3 4 4 4 2 2 3 3 4 4 3 3 3 3 3 5 8 12 15 17 18 18 19 19 20 20 20 20 20 20 20 20 20 20 20 20 20 20 20 20 20 20 20 20 20 20 20 20 21 21 21 21
1 1 1 0 0 1 1 1 1 1 2 3 2 2 2 2 1 1 2 2 2 3 3 3 3 3 3 3 3 3 3 3 3 3 3 4 4 4 2 2 2 3 4 4 4 4 3 4 4 5 8 12 15 17 18 19 19 20 20 20 20 20 20 20 20 20 20 20 20 20 20 20 20 20 20 20 20 20 20 20 20 21 21 21 21 21
0 1 1 1 1 1 1 1 1 1 1 2 2 3 3 2 2 2 2 2 2 3 3 3 3 4 4 4 4 3 3 3 2 2 2 3 4 4 2 2 3 4 5 4 4 4 4 4 4 4 5 10 14 16 18 19 20 20 20 20 20 20 20 20 20 20 20 20 20 20 20 20 20 20 20 20 20 20 20 20 20 20 21 21 21 21
0 1 1 2 2 2 2 2 2 2 2 2 2 2 2 2 3 3 3 3 3 3 3 3 4 4 3 3 3 3 2 2 2 1 2 3 4 4 3 2 3 4 5 4 4 4 4 5 5 4 4 7 11 15 17 18 19 19 20 20 20 20 20 20 20 20 20 20 20 20 20 20 20 20 20 20 20 20 20 20 20 20 20 20 21 21
2 3 4 5 7 8 9 9 8 7 6 4 3 2 2 3 3 3 3 3 2 3 3 3 4 4 3 3 2 2 2 1 1 1 1 2 3 4 3 2 2 3 5 5 4 4 4 5 5 4 4 5 9 13 15 17 18 19 19 19 19 20 20 20 20 21 21 21 21 21 21 21 21 21 21 20 20 20 20 20 20 20 20 20 20 20
6 7 8 9 9 10 11 11 11 11 11 9 7 5 3 3 3 3 4 3 2 2 3 3 4 4 3 3 2 2 2 1 1 1 1 2 3 4 3 3 2 3 5 5 4 4 6 6 5 5 5 5 6 9 13 15 16 17 18 19 19 20 20 21 21 21 21 21 21 21 21 21 21 21 21 21 21 21 21 20 20 20 20 19 17 16
6 7 7 8 9 9 10 10 11 11 12 12 12 10 7 4 3 4 4 3 2 2 3 3 4 4 3 3 3 2 2 2 1 1 1 2 3 3 3 3 3 3 4 4 4 5 6 6 5 5 5 4 4 5 9 12 14 15 17 18 19 20 20 21 21 21 21 21 21 21 21 21 21 21 21 21 21 21 21 21 20 20 18 15 11 9
6 7 7 8 8 9 9 9 10 10 11 12 12 11 8 4 3 4 4 2 2 2 3 4 4 4 4 3 3 3 2 2 2 2 1 2 3 3 2 2 2 2 3 4 4 4 4 4 4 3 4 4 4 4 5 8 10 12 14 16 18 19 19 20 20 20 21 21 21 21 21 21 21 21 21 21 21 21 21 21 20 18 14 11 8 6
5 6 6 6 7 7 7 6 7 8 10 11 11 10 8 4 3 3 3 2 2 2 3 4 4 4 4 4 4 3 3 2 2 1 1 1 2 2 2 2 2 2 2 3 4 5 4 3 3 2 2 3 3 3 4 5 6 7 9 12 13 15 17 18 19 20 20 20 20 21 21 21 21 21 21 21 21 21 21 21 19 15 9 7 6 6
3 3 3 3 4 4 4 4 4 6 8 9 9 8 6 3 2 2 2 2 2 2 3 3 4 4 3 3 3 3 2 2 2 1 2 1 1 2 2 2 3 2 2 2 3 5 5 4 3 2 1 3 4 4 5 5 5 5 5 7 8 10 14 16 17 18 18 19 19 20 20 21 21 21 21 21 21 21 21 21 19 14 9 7 6 6
3 3 3 3 3 3 3 3 3 3 4 5 5 5 4 3 2 2 2 2 2 2 3 3 4 4 4 4 4 3 3 2 2 2 2 2 2 2 2 2 3 3 2 2 2 4 5 5 4 4 3 4 5 5 5 5 5 5 5 5 5 7 11 13 14 15 15 16 18 19 19 20 20 21 21 21 21 21 21 21 19 15 9 7 6 6
3 3 3 3 3 3 3 3 3 3 3 3 3 3 3 3 3 3 3 3 3 3 3 3 4 4 4 4 5 4 4 3 3 4 4 3 2 2 2 3 3 3 3 3 3 3 4 5 6 6 6 5 5 5 5 5 5 5 5 5 5 6 9 10 10 11 11 13 14 15 17 18 19 20 20 21 21 21 21 21 20 17 12 8 7 7
3 3 3 3 3 3 3 3 3 3 3 3 3 3 3 3 3 3 3 3 3 3 3 3 3 4 4 4 5 5 5 4 4 5 5 3 2 3 3 3 4 4 4 4 4 4 4 5 6 6 6 6 5 5 5 5 5 5 4 4 4 5 6 7 7 8 9 9 9 10 11 12 14 16 17 18 19 19 20 20 20 19 17 12 10 8
3 3 3 3 3 3 3 3 3 3 3 3 3 2 2 1 1 1 1 1 2 2 2 3 3 3 3 4 4 5 5 3 3 4 5 4 3 3 4 4 4 4 4 4 4 4 4 6 7 7 7 7 6 5 4 4 4 4 4 4 5 5 5 5 6 7 8 8 8 7 7 8 8 10 12 14 16 17 19 20 20 21 20 18 15 11
2 3 3 3 3 3 3 3 3 3 2 2 1 1 0 1 1 1 1 1 1 1 1 2 2 2 3 4 5 5 6 4 4 4 5 4 4 3 4 4 4 5 5 5 5 5 5 6 8 8 9 8 7 6 5 4 4 4 4 5 5 5 6 6 6 6 6 7 7 7 7 7 7 8 9 13 16 18 19 20 21 21 21 21 19 17
2 2 2 2 3 3 3 2 2 1 1 1 1 1 2 2 2 2 1 1 1 2 2 3 3 3 4 4 5 5 6 5 5 5 6 5 4 4 4 5 5 6 5 6 6 6 6 7 8 8 8 8 7 6 6 5 5 5 5 5 5 6 6 6 6 6 6 7 7 7 7 7 7 8 9 13 15 16 18 19 19 20 20 20 20 20
2 2 2 2 2 2 2 2 1 1 1 1 1 2 2 2 2 2 2 2 3 3 3 3 4 5 7 8 8 7 7 7 7 8 7 6 5 5 5 6 6 6 6 6 6 6 7 7 8 8 7 7 7 8 8 8 7 7 6 6 6 6 6 6 5 5 5 6 7 8 9 8 8 7 8 9 9 9 10 11 12 14 17 17 18 19
2 2 2 2 2 2 1 2 1 1 1 1 1 1 2 2 3 3 3 3 3 4 4 4 4 5 6 7 8 9 9 9 8 8 7 7 6 6 6 7 7 7 6 6 6 6 7 7 7 7 7 7 8 8 8 8 8 8 8 8 7 7 6 5 5 5 5 6 7 8 8 8 7 7 7 7 6 6 7 7 8 9 9 9 10 14
2 2 2 3 3 2 2 2 2 1 1 1 2 2 2 3 3 3 3 4 4 4 5 5 5 5 5 6 7 8 9 7 7 7 6 6 6 6 7 7 7 7 7 6 6 7 7 8 8 8 8 8 8 8 8 7 8 8 9 8 7 6 6 6 6 6 5 5 6 7 6 6 7 7 7 7 6 6 6 6 6 7 7 6 6 7
3 3 2 2 3 3 3 2 2 2 2 2 2 2 2 3 3 3 3 3 3 4 4 4 4 4 5 5 6 6 7 7 7 7 6 6 7 7 7 7 7 7 7 7 7 7 8 8 9 9 9 9 9 10 10 9 10 11 11 9 8 8 8 9 8 7 6 5 5 6 7 8 8 8 8 8 8 7 7 7 7 7 7 6 6 6
4 3 2 2 3 2 2 2 3 3 3 3 3 3 3 3 3 3 3 3 3 3 3 3 3 4 5 5 5 5 6 6 7 7 8 8 8 8 8 7 7 7 7 8 8 8 8 9 9 9 9 9 9 9 10 10 10 10 10 10 10 10 10 9 7 5 5 6 6 6 8 8 8 8 9 9 8 8 8 8 9 9 9 7 6 6
3 3 3 3 2 2 2 3 3 3 3 3 3 3 3 2 3 3 3 3 3 3 3 3 3 4 5 5 5 5 4 5 6 7 8 8 8 8 8 9 8 8 7 8 8 8 9 9 9 9 9 9 9 10 11 10 10 10 9 10 10 9 7 7 6 5 5 6 7 7 8 8 8 8 8 8 8 7 7 9 10 11 10 9 8 7
3 3 3 3 2 2 2 2 2 3 3 3 3 3 3 3 3 4 4 3 3 4 3 3 3 4 5 6 6 5 4 4 5 6 7 8 8 8 8 9 9 8 8 8 8 8 8 9 9 9 8 8 9 9 10 10 10 10 9 9 9 9 8 8 8 8 7 8 7 7 7 7 8 8 8 8 8 7 7 7 8 8 9 9 8 8
3 3 3 2 2 2 2 2 2 3 3 3 3 3 3 3 4 4 4 3 3 4 3 3 3 4 5 5 5 5 4 4 4 4 5 7 9 10 8 8 7 8 8 8 8 8 8 8 8 8 8 8 9 9 10 10 10 10 10 10 10 10 10 9 9 10 10 9 8 8 8 7 8 8 9 8 8 7 7 7 8 8 8 8 8 8
3 3 3 2 2 2 3 3 3 3 3 3 3 3 3 3 3 3 4 4 4 4 3 3 3 4 5 5 5 5 5 5 4 4 4 4 5 6 7 7 7 7 7 7 8 8 8 9 9 9 8 9 9 10 10 10 10 10 10 10 10 9 10 9 9 9 9 9 9 9 9 8 8 8 9 9 9 8 7 7 8 8 8 7 8 8
2 2 2 2 2 2 3 3 3 3 3 4 4 4 3 3 3 3 3 3 4 4 4 3 4 4 5 5 5 5 6 6 5 5 4 4 4 4 5 6 7 7 7 7 8 9 9 9 9 9 9 10 10 10 10 10 10 10 10 10 9 9 9 8 8 8 8 9 9 8 7 7 8 9 9 9 9 8 7 7 7 7 7 7 7 8
3 3 3 2 2 3 3 3 3 3 4 4 4 4 3 3 4 4 4 3 3 4 4 4 4 5 6 6 6 6 6 7 6 6 5 4 4 4 5 5 5 6 7 8 9 9 10 10 10 10 10 10 10 11 11 10 10 10 10 9 9 9 10 9 8 8 8 9 9 8 7 7 8 9 9 9 9 8 8 7 7 7 7 7 7 8
3 3 3 3 3 3 3 3 4 4 4 4 4 4 3 4 5 6 4 3 3 3 4 4 5 6 6 6 6 6 7 7 6 6 5 5 4 4 4 4 5 5 6 6 7 8 8 9 11 11 11 11 11 11 12 11 10 10 9 9 9 9 9 9 9 8 8 8 9 8 7 7 7 8 8 9 9 10 10 9 9 8 7 7 7 8
3 3 3 3 3 4 4 4 4 4 5 5 5 4 4 3 3 3 4 4 4 4 4 5 5 6 6 6 6 6 7 6 6 6 5 5 5 5 4 4 5 5 6 5 5 6 6 6 8 10 12 12 12 12 11 11 10 10 9 9 9 9 9 9 9 8 8 8 8 7 6 6 6 6 6 8 10 11 11 10 9 8 7 7 7 8
3 3 3 3 3 4 4 4 4 5 5 5 5 5 4 4 3 3 3 4 4 4 4 5 5 6 7 7 7 7 7 7 7 6 6 5 5 5 5 5 5 5 5 5 5 5 5 5 5 6 8 11 13 13 10 10 9 9 9 9 8 7 7 8 8 8 8 7 7 7 6 7 7 7 6 8 9 10 11 10 10 8 7 7 7 8
Wind_Direction
125 135 142 152 157 167 185 191 197 205 217 226 234 239 247 247 243 238 235 234 236 242 251 256 260 265 273 280 284 287 290 292 293 294 295 294 293 293 292 291 290 289 288 288 288 288 288 288 288 287 286 285 284 283 283 282 283 283 283 283 284 284 286 286 287 287 287 288 288 289 290 291 292 292 293 292 291 291 290 289 288 288 287 285 284 284
112 124 140 153 159 165 180 193 201 209 219 230 236 238 238 238 237 236 234 235 239 245 253 258 260 260 259 269 279 285 288 292 294 294 294 294 293 292 291 290 289 288 287 287 288 288 288 287 287 286 284 283 282 282 281 281 281 281 282 283 284 285 286 286 286 286 286 287 287 288 289 289 290 290 290 289 288 287 286 286 286 285 285 284 284 284
115 123 139 151 156 161 173 197 211 219 222 228 231 230 225 224 226 229 237 247 251 253 254 254 255 254 253 258 274 284 289 292 294 295 294 293 292 291 289 288 287 287 287 287 287 287 287 286 285 284 283 282 281 281 281 281 282 282 283 284 284 285 285 285 285 285 286 286 287 287 287 288 288 287 287 286 285 285 284 284 284 284 284 284 284 284
130 138 150 154 161 171 181 196 208 216 220 223 223 220 213 212 217 227 236 244 252 255 253 250 250 251 252 255 271 283 290 293 294 295 294 293 292 291 289 289 288 288 288 288 288 287 286 285 284 283 282 282 282 282 282 282 283 283 284 285 285 285 285 285 284 284 285 285 286 286 286 286 285 285 285 284 283 283 283 283 283 283 283 283 282 282
147 154 160 163 171 181 190 196 204 209 214 215 213 209 203 204 213 228 238 242 248 251 253 251 250 252 257 259 274 284 290 294 295 296 296 295 295 294 293 292 291 291 290 290 289 288 287 286 285 284 284 283 283 283 283 283 283 283 284 284 284 284 284 284 284 284 284 284 284 284 284 284 283 283 282 282 282 282 281 281 281 281 281 281 281 281
150 160 164 167 174 181 190 195 200 204 207 207 205 202 200 203 212 224 236 241 243 245 249 250 252 254 259 262 276 284 290 296 299 301 301 301 300 299 298 297 296 295 293 292 291 289 288 287 286 286 285 284 284 283 283 283 282 282 282 283 283 283 283 284 284 284 284 284 284 283 283 282 282 281 281 280 280 280 280 280 280 280 280 280 279 279
130 156 167 171 174 183 190 198 199 198 195 197 200 206 210 213 215 221 229 233 237 243 249 253 255 257 258 261 272 282 292 301 306 308 307 306 304 302 300 299 297 296 294 292 291 289 288 288 287 286 286 285 285 284 283 283 283 283 283 283 283 283 284 284 284 284 284 283 283 282 282 281 280 280 279 279 279 279 279 279 279 279 279 279 279 279
115 187 201 186 187 193 202 206 202 194 181 180 185 198 220 243 251 250 248 250 251 250 254 259 261 262 259 258 269 283 298 307 310 310 308 305 302 299 296 295 294 293 291 290 289 288 288 288 288 288 288 288 288 288 287 287 287 287 287 286 286 286 286 285 285 284 284 283 282 281 280 280 279 279 279 279 278 279 279 279 279 279 279 279 279 279
155 205 229 210 198 198 210 222 217 201 172 162 164 171 182 236 294 301 302 290 275 258 245 251 262 271 271 268 278 298 308 309 308 304 302 298 294 291 290 290 289 289 289 289 289 289 290 291 292 293 293 293 293 293 293 293 292 292 291 291 290 288 287 286 285 284 283 282 281 281 280 279 279 279 279 279 279 279 279 279 279 279 279 279 278 278
192 209 228 228 215 204 205 224 231 219 161 143 143 150 154 177 227 268 283 278 275 267 246 234 253 276 288 293 302 309 310 309 305 303 302 297 295 294 291 291 291 291 291 292 293 294 295 296 298 299 298 298 298 298 297 297 297 295 294 292 290 288 287 285 284 283 282 282 281 280 280 280 280 280 280 280 280 279 279 279 279 279 278 278 278 278
207 213 218 229 227 218 202 212 218 207 114 105 107 128 157 184 204 223 246 258 270 283 293 264 253 268 295 305 310 312 312 308 304 302 301 297 295 295 294 295 296 296 296 297 298 300 300 300 301 301 300 300 300 300 299 299 297 296 293 291 289 287 285 284 283 282 282 282 281 281 281 281 281 281 280 280 280 280 279 279 279 279 279 279 279 279
210 211 211 215 217 217 211 218 217 123 88 96 97 241 250 221 204 198 209 231 252 274 288 284 275 269 283 305 312 315 313 304 298 294 293 292 291 292 294 297 300 301 301 302 302 302 301 300 299 299 299 299 299 299 298 298 296 294 292 289 287 286 284 284 283 283 283 283 282 282 282 282 281 281 280 280 280 280 280 279 279 279 279 279 279 279
219 210 202 200 199 198 205 215 233 121 117 145 173 206 232 229 201 173 176 207 231 247 260 295 306 306 296 305 312 312 309 300 293 288 286 285 286 289 296 301 301 302 303 302 301 298 298 297 297 296 296 296 296 296 295 294 293 291 289 288 287 286 285 285 285 284 284 284 283 283 282 282 281 280 280 280 280 279 279 279 279 279 279 278 278 278
222 209 187 187 193 203 203 195 195 196 195 187 188 195 207 209 175 120 106 269 269 275 343 345 331 321 315 313 303 293 295 295 293 291 288 285 285 291 307 304 298 295 296 296 292 289 290 291 292 292 292 291 291 291 289 289 289 288 287 287 286 286 286 286 285 285 285 284 284 283 282 282 281 280 280 280 279 279 279 279 278 278 278 278 277 277
210 180 157 183 207 218 211 188 180 187 203 201 193 182 170 76 54 57 48 309 313 339 16 359 339 322 310 297 287 281 290 294 295 295 295 292 292 296 309 303 297 293 292 290 287 284 284 283 281 278 279 279 279 280 282 284 285 286 287 287 287 286 286 286 286 285 285 284 284 283 282 281 281 280 280 279 279 279 279 278 278 278 278 277 277 277
166 128 135 185 230 247 237 169 153 165 214 214 131 75 54 26 28 62 97 302 338 5 18 356 336 321 305 294 290 293 308 305 302 299 301 298 296 298 306 300 294 290 288 285 282 280 279 275 270 267 267 273 278 281 284 286 287 288 288 288 288 288 287 287 286 286 285 285 284 283 283 282 281 281 280 280 280 279 279 279 279 278 278 278 278 277
107 112 137 179 251 268 276 232 132 145 178 16 39 69 102 145 141 117 108 91 46 28 22 351 324 310 304 305 304 306 326 322 309 301 300 295 292 291 289 285 284 284 284 280 276 274 274 271 268 266 265 272 279 284 288 290 291 291 291 291 290 290 289 288 288 287 286 286 285 285 284 284 283 283 282 281 281 281 280 280 280 280 279 279 279 278
127 146 152 185 235 258 281 315 351 16 47 26 19 35 60 93 101 99 97 95 87 73 314 280 280 285 295 300 297 295 307 314 304 298 296 290 287 283 274 269 272 276 279 277 274 271 269 268 266 266 270 281 286 289 292 294 294 294 293 293 292 292 291 291 290 289 289 288 288 287 287 286 286 285 285 284 283 283 282 282 281 281 280 280 279 279
205 184 167 192 213 237 263 278 295 313 69 111 71 48 26 23 36 53 69 104 143 180 215 258 271 277 282 284 284 283 288 303 301 297 293 288 285 281 272 268 271 274 277 275 273 270 268 265 266 270 277 285 290 293 296 297 297 297 296 296 296 295 295 294 293 293 292 291 290 290 289 288 288 287 286 286 285 284 283 283 282 281 281 280 279 279
265 242 199 193 190 205 283 263 236 186 161 125 98 79 51 23 18 16 348 268 238 236 242 256 264 269 272 275 278 284 311 335 319 299 287 284 283 280 271 268 272 275 276 274 271 268 266 264 268 276 283 288 293 296 298 299 299 300 300 300 299 299 298 298 297 296 295 294 293 292 291 290 289 288 287 286 285 285 284 283 282 282 281 280 279 279
313 282 248 175 127 105 280 258 250 167 117 93 82 72 63 39 12 334 284 277 272 271 266 264 264 266 272 277 283 292 318 324 308 294 286 284 281 278 270 264 268 273 276 274 269 265 264 267 269 276 283 292 296 298 300 302 302 303 303 302 302 302 301 300 299 298 296 295 294 292 291 290 289 287 286 286 285 285 284 283 283 282 281 281 280 279
212 266 260 168 119 132 227 232 234 85 89 88 88 89 112 114 256 273 272 277 281 280 279 275 276 279 285 285 286 288 292 282 275 277 286 287 285 281 269 260 265 272 277 278 277 275 274 277 279 283 289 295 298 301 303 304 304 305 305 304 303 303 302 300 299 298 296 295 293 292 290 289 288 288 287 287 286 286 285 284 284 283 283 282 281 281
162 248 272 276 189 175 193 206 195 113 98 110 131 157 171 171 194 240 269 276 277 276 276 278 281 283 283 281 279 275 267 254 250 257 273 281 283 284 277 269 272 277 280 284 289 292 291 287 284 286 290 297 300 302 304 305 305 305 305 304 303 302 301 300 299 297 296 295 294 293 292 291 291 290 289 289 288 287 286 286 285 284 283 283 282 281
44 313 300 299 266 209 183 189 183 156 125 138 155 171 178 186 206 234 256 260 263 267 273 280 282 282 279 274 272 268 258 241 231 233 256 273 279 284 287 287 287 287 285 287 291 295 294 290 286 284 288 297 301 303 304 305 305 305 304 303 303 302 301 301 300 299 298 298 297 296 295 295 294 293 292 291 290 288 287 286 285 284 284 283 282 280
336 312 301 291 279 268 257 250 238 219 188 175 175 184 197 221 240 252 258 257 261 269 280 285 284 281 279 275 272 268 261 236 210 205 240 269 278 282 285 289 291 290 290 291 293 294 293 290 288 287 289 296 300 302 303 303 303 303 303 303 304 304 304 304 304 303 302 302 301 300 298 297 296 294 293 292 290 289 288 287 286 285 284 283 282 281
286 287 287 288 287 286 284 281 276 267 257 243 221 202 207 227 245 256 262 262 268 277 286 285 282 279 280 279 277 274 272 263 223 203 225 268 282 287 290 294 292 291 292 294 295 294 292 289 290 291 293 295 298 299 300 301 302 303 304 305 306 307 307 307 306 306 304 303 302 300 299 298 296 295 294 293 292 291 290 289 288 287 286 285 283 282
286 288 290 291 292 292 291 290 286 282 276 271 263 251 237 233 246 257 260 260 267 277 281 278 280 281 282 278 272 268 270 283 273 243 231 276 286 289 292 299 299 294 292 292 291 290 290 290 291 293 293 291 291 294 296 300 303 305 307 307 308 308 308 307 306 305 304 302 301 300 299 298 297 296 295 294 294 293 292 291 290 289 288 287 285 283
294 292 292 291 290 290 289 287 286 284 282 279 275 271 265 257 257 261 262 259 262 268 269 271 276 282 284 279 274 272 273 278 277 272 268 279 279 281 287 293 292 289 291 292 291 289 286 284 285 286 285 283 282 287 295 302 306 308 308 307 307 306 306 305 304 303 303 302 301 300 300 299 298 298 297 296 296 295 294 294 293 292 291 290 288 284
320 312 303 298 294 291 288 286 285 283 281 279 277 274 270 261 253 252 255 248 248 256 263 266 271 277 283 285 286 285 282 274 266 260 255 261 266 271 279 288 290 294 305 304 300 293 281 273 271 272 274 281 286 294 302 309 310 308 306 304 304 303 303 303 303 303 302 302 302 301 301 300 300 299 299 299 298 298 297 297 297 295 294 291 288 283
337 331 321 312 305 299 293 289 285 281 279 277 275 273 270 258 239 231 231 216 221 241 257 266 271 276 283 291 294 293 284 271 261 249 156 243 265 274 293 305 309 315 330 319 310 301 292 277 261 254 266 292 303 308 309 308 304 301 299 300 300 300 301 302 302 302 302 302 302 302 302 302 302 302 301 301 301 300 300 300 299 298 295 290 286 281
318 315 309 304 300 295 288 280 274 271 272 273 274 274 272 259 229 208 201 191 203 226 249 263 269 273 279 287 289 288 283 272 280 334 63 21 289 287 312 313 310 309 322 321 311 306 303 297 287 276 291 307 307 304 301 298 295 294 293 295 296 297 299 301 301 302 302 303 303 303 303 303 303 303 302 302 301 301 300 300 299 297 293 290 285 280
281 278 273 271 272 273 273 268 264 262 263 266 268 268 266 255 231 205 191 190 201 221 245 259 266 270 271 270 271 272 275 278 303 335 5 337 302 292 304 301 299 297 298 294 293 294 298 301 304 307 310 305 301 297 295 293 292 292 293 293 293 295 297 300 301 302 302 303 303 303 303 303 303 302 301 301 300 299 299 298 297 296 293 289 284 280
275 274 271 272 273 273 271 267 264 260 256 254 251 249 250 244 232 217 203 200 207 220 234 252 262 268 270 267 267 268 272 278 299 313 321 314 298 292 295 295 296 296 298 291 281 276 279 289 297 303 304 300 297 295 295 295 292 290 290 291 291 293 296 299 301 301 302 302 302 302 302 301 300 300 299 298 298 297 297 296 295 293 291 288 283 280
284 284 285 285 283 281 277 273 268 263 257 250 243 237 232 231 227 222 215 211 213 217 222 236 250 262 269 271 271 271 273 276 294 307 316 310 299 294 298 297 297 298 300 295 287 281 276 282 290 297 299 298 297 295 295 294 292 289 285 286 287 291 295 299 300 299 298 299 298 298 297 297 296 295 295 295 294 294 294 294 293 292 291 289 286 283
291 291 290 289 288 286 283 279 274 268 263 257 249 240 231 225 222 224 222 223 223 222 222 226 235 246 257 266 271 274 275 279 299 314 318 314 305 301 298 295 296 299 300 295 292 290 286 286 289 293 297 298 298 295 291 288 287 286 283 283 284 288 291 294 295 295 294 294 293 291 290 289 289 289 289 290 291 291 292 292 293 292 292 291 289 288
294 293 290 287 285 283 280 277 275 274 275 275 278 294 22 46 43 32 12 344 315 295 277 257 247 245 247 257 266 272 277 282 295 303 304 302 301 298 293 290 293 296 295 293 291 290 289 290 290 291 292 294 295 295 294 290 289 289 289 289 288 287 287 287 287 287 289 289 289 288 286 285 283 283 284 288 290 291 292 292 292 292 291 290 289 287
286 286 283 279 277 278 280 283 288 297 305 318 350 14 26 30 25 15 3 353 338 324 313 302 292 282 276 271 270 273 279 284 288 289 287 287 286 284 281 283 284 285 285 286 288 289 289 289 290 289 287 286 289 294 299 302 301 298 294 293 292 289 287 284 281 279 280 281 283 284 285 285 285 285 286 289 290 291 291 291 290 288 287 286 285 284
282 280 277 275 279 288 299 311 320 327 334 351 3 9 14 11 2 350 340 331 324 317 312 306 298 289 283 280 277 276 279 280 280 279 276 274 272 270 271 274 275 274 272 274 279 282 284 285 287 288 287 284 284 287 294 299 300 299 296 294 290 287 285 282 278 275 274 278 281 284 286 286 287 287 287 287 287 286 286 283 282 281 282 281 281 280
271 274 280 295 305 314 315 307 300 297 317 347 357 358 0 350 340 329 321 313 306 299 292 285 280 275 272 269 269 270 272 272 271 268 265 262 259 260 263 267 269 269 267 266 268 270 272 274 277 281 285 287 287 287 289 291 293 295 297 296 292 286 281 280 280 279 278 280 284 286 287 286 285 283 282 281 279 278 277 275 274 274 275 276 277 277
277 283 292 307 311 304 287 283 282 291 326 352 355 354 347 332 319 307 296 287 279 274 267 263 260 259 258 258 261 263 264 264 262 259 256 251 249 250 254 260 264 267 267 264 261 261 262 265 268 271 275 280 284 287 289 288 289 292 296 297 295 293 292 291 289 285 281 279 280 282 284 283 281 279 278 277 276 276 276 276 277 276 276 276 277 278
288 291 296 297 291 286 285 297 318 341 352 353 347 337 320 307 295 285 278 273 269 266 264 261 262 262 261 258 257 257 257 256 255 253 250 244 242 242 246 252 257 261 264 263 260 258 257 261 265 268 270 273 277 281 282 283 285 288 291 290 290 291 294 292 290 287 284 280 278 278 281 284 284 283 281 280 278 276 274 275 276 276 276 273 272 274
290 292 290 282 279 284 306 333 342 343 342 336 322 305 291 283 279 279 282 281 279 278 277 276 276 275 274 269 263 258 255 254 252 250 249 244 240 238 241 246 250 255 259 261 261 259 256 258 262 265 268 271 275 277 280 281 282 283 284 285 288 291 292 288 285 283 284 283 283 282 282 284 284 283 281 279 277 274 271 270 270 271 272 270 267 266
286 283 277 273 276 293 322 332 333 329 322 311 297 288 284 283 284 285 286 284 282 281 279 277 277 278 280 278 275 269 260 254 250 249 248 244 241 239 240 243 246 249 252 257 260 261 259 257 258 261 264 267 270 274 278 281 283 282 279 281 286 291 292 291 291 290 287 285 284 283 281 280 279 278 278 277 275 274 271 270 269 268 268 268 267 264
279 275 273 277 292 316 332 326 316 304 296 290 287 287 287 285 283 283 282 279 276 276 275 274 275 276 277 278 279 278 272 261 252 248 249 249 246 243 246 244 245 245 246 251 257 262 265 262 261 261 264 266 268 271 274 278 280 281 279 279 279 279 279 287 293 295 292 287 284 281 278 277 278 278 278 277 276 274 272 270 267 265 264 263 263 263
273 275 280 291 304 314 310 299 291 287 285 285 284 283 282 277 275 274 273 273 273 273 272 273 277 278 276 277 280 282 282 278 270 263 259 260 261 261 260 257 254 251 248 249 253 258 265 267 269 269 269 268 267 268 271 275 278 280 279 279 277 275 273 279 284 287 287 286 284 282 279 278 280 281 281 279 276 273 270 269 267 265 263 260 259 260
267 275 284 291 293 289 285 285 285 285 283 281 279 277 275 270 268 267 268 270 271 272 271 269 270 273 276 281 284 287 288 286 283 279 273 267 263 262 262 261 261 260 259 257 256 256 259 264 270 274 276 273 270 268 267 272 275 278 279 279 278 277 276 276 276 277 278 281 281 280 279 279 280 280 280 279 277 274 270 267 265 265 264 261 259 258
279 285 287 286 282 280 280 283 283 282 280 278 276 274 272 270 269 269 269 268 271 273 276 273 271 271 275 281 285 288 289 289 287 283 279 274 267 262 259 259 259 258 259 260 260 260 259 260 263 268 272 274 274 272 270 270 272 274 277 278 279 278 276 275 273 273 273 275 276 278 280 281 280 279 278 278 278 277 274 271 269 268 267 266 264 262
288 288 286 284 284 283 283 282 279 277 276 276 274 273 271 271 273 276 275 273 276 280 283 282 279 277 277 279 281 282 283 284 285 285 284 281 277 272 266 264 262 261 260 260 261 261 261 259 258 258 261 266 270 272 273 272 271 271 273 275 276 276 274 274 274 273 273 271 271 271 274 276 277 278 280 281 282 282 282 281 279 276 274 272 270 268
283 283 283 284 283 281 279 276 273 272 273 274 274 274 271 272 276 280 281 280 280 280 280 279 279 278 278 277 277 278 279 280 282 283 283 282 281 279 276 273 272 270 269 265 264 263 262 259 254 251 249 253 259 266 270 270 270 269 270 271 271 272 272 273 273 273 271 270 268 267 266 268 271 275 281 284 286 287 288 287 285 282 278 274 271 269
280 280 281 280 277 275 273 271 271 271 272 274 276 276 273 272 271 272 273 274 273 271 270 271 272 274 276 277 277 277 277 278 279 279 279 280 282 282 281 280 280 280 279 276 273 270 268 264 255 247 241 242 247 254 264 267 268 268 268 267 267 268 270 272 273 273 273 273 273 272 271 273 276 279 282 285 287 288 288 287 285 282 279 274 271 268
282 279 277 275 273 273 273 275 276 276 277 277 277 276 276 275 272 269 268 268 268 267 266 266 267 269 273 275 276 276 275 276 276 277 276 277 279 280 280 280 281 283 285 285 284 283 282 280 274 263 247 241 241 244 254 261 266 269 269 267 266 267 270 273 275 277 278 279 281 283 283 284 284 284 284 285 286 286 286 285 284 282 280 277 274 272